Torna al catalogo

NAVSTAR 86

USA 585

AttivoNavigazioneHEO
NORAD 68791·PAYLOAD·🇺🇸 United States

Lanciato Apr 21, 2026 da Cape Canaveral Space Force Station

Loading…

Prossimi Passaggi (prossime 24 ore)

TLE

AggiornatoSource: CelesTrak SupGP

Epoca: Sep 14, 2026, 00:00 UTC

1 68791C 26087A   26257.00000000  .00000000  00000+0  00000+0 0  2571
2 68791  54.9550 204.2786 0021238 103.0514 145.9189  2.00578137    11

Traccia NAVSTAR 86 in tempo reale con AllMySat

Download on the App Store